Location: North Evanston
(42.0634°N, 87.6976°W)
Time: 20:09:10
(UTC+00:00)

Vanguard 2 Rocket - Pass Details

Date: 18 May 2026
Orbit: 553 x 3286 km, 32.9° (Epoch: 6 June)

Event Time Altitude Azimuth Distance (km) Brightness Sun altitude
Rises 00:20:54 0° 274° (W) 7,247 13.3 7.0°
Reaches altitude 10° 00:31:44 10° 247° (WSW) 6,132 11.9 5.1°
Maximum altitude 00:36:22 11° 233° (SW) 5,860 11.5 4.3°
Drops below altitude 10° 00:40:48 10° 218° (SW) 5,762 11.2 3.5°
Sets 00:49:57 0° 190° (S) 6,136 11.0 2.0°
